Wind_Speed
30 31 33 35 35 34 32 31 29 29 30 30 30 29 28 28 28 28 29 29 28 26 25 25 25 23 22 23 21 19 16 14 13 14 15 15 15 14 14 13 13 12 12 13 14 15 15 14 14 12 11 10 10 10 11 11 11 12 13 14 16 17 16 17 17 17 18 19 20 22 25 26 23 24 26 27 27 26 27 29 29 27 26 25 24 24 24
30 30 30 32 35 36 35 34 32 31 30 30 31 30 29 28 29 29 30 29 28 27 26 24 21 16 15 16 17 17 17 16 15 15 15 16 16 16 15 14 13 13 12 13 14 15 15 15 15 14 13 12 12 12 13 13 13 14 15 16 17 17 17 18 20 19 18 18 19 21 24 26 23 23 26 28 28 26 27 28 28 25 25 25 24 25 26
31 31 29 28 31 35 36 37 36 33 30 30 31 31 30 29 29 30 32 32 31 29 27 24 20 17 17 16 16 17 18 17 16 16 16 17 17 16 16 16 14 14 13 13 13 14 14 14 14 14 13 13 13 13 14 14 15 16 16 17 17 16 17 18 20 20 20 19 19 20 23 25 23 23 28 30 28 26 26 27 26 26 27 26 25 26 26
32 31 29 28 28 31 35 37 37 35 33 32 32 32 31 31 31 32 33 33 33 32 29 26 24 22 22 21 21 21 20 18 17 16 16 16 17 17 17 16 15 15 15 14 13 13 13 13 13 13 13 13 14 14 15 14 15 15 16 18 18 16 17 19 20 21 20 19 19 20 23 25 23 24 28 30 26 25 25 25 26 28 28 25 24 25 25
35 34 33 31 29 29 33 35 36 35 34 33 32 32 32 31 31 32 33 33 33 32 30 28 26 24 23 21 21 23 23 21 19 18 17 17 18 19 18 17 17 17 16 16 15 14 14 14 13 13 13 14 14 14 15 15 14 13 14 17 18 17 18 18 18 19 18 18 19 20 23 24 23 24 27 28 26 25 24 26 29 29 26 23 23 24 25
38 38 36 33 32 31 32 33 34 34 33 32 31 31 32 32 32 33 33 32 31 29 27 24 23 22 22 20 21 22 24 24 22 20 20 20 20 21 21 20 19 19 19 18 17 16 16 15 14 14 15 15 14 14 15 15 14 13 13 15 16 16 16 17 17 17 16 18 20 21 23 24 24 25 27 29 27 25 25 28 30 27 24 23 24 25 27
37 40 39 36 34 32 30 30 32 33 33 31 30 29 28 28 28 28 29 29 28 27 25 23 21 21 20 21 22 23 24 25 24 23 23 23 23 23 22 22 22 21 20 20 19 18 17 16 15 16 16 17 16 16 16 15 15 14 13 14 15 15 16 17 16 15 15 17 19 22 23 23 24 26 27 29 28 27 27 29 27 24 23 24 25 26 29
28 32 35 37 35 33 29 28 29 31 31 30 29 28 26 25 23 22 23 26 28 28 27 26 25 24 23 23 23 23 24 25 25 25 25 24 25 25 25 24 24 23 21 21 22 21 20 18 17 17 17 18 18 18 17 17 16 15 14 14 14 14 15 17 15 13 15 18 19 21 22 22 25 28 30 33 30 27 29 30 26 24 25 26 27 28 30
21 21 25 30 33 33 29 26 27 28 28 27 27 27 27 26 25 23 22 25 28 29 28 28 28 28 26 25 24 24 24 25 26 26 26 26 26 27 27 25 24 23 23 23 23 22 21 20 18 18 18 19 19 19 19 18 17 17 16 15 15 13 13 14 14 14 17 18 18 20 21 21 25 29 32 33 31 29 31 29 25 24 25 26 28 29 30
21 19 18 21 26 28 26 24 24 25 26 25 26 27 26 26 25 23 21 22 25 27 28 29 29 29 29 28 27 27 27 27 28 28 28 28 28 28 28 27 24 22 22 24 24 23 22 21 20 19 19 19 20 20 20 20 19 18 17 17 16 15 13 13 14 15 17 20 19 19 21 21 24 28 30 30 31 32 31 27 25 25 26 27 28 28 29
24 21 19 19 20 22 22 21 22 23 24 24 25 26 27 26 25 24 21 21 22 25 27 28 29 29 29 29 29 30 30 30 30 30 30 30 30 29 29 29 28 26 24 25 25 24 24 23 23 22 21 21 21 21 21 21 20 18 18 18 18 17 15 15 15 15 15 20 22 22 24 24 26 27 28 29 31 31 29 27 27 28 27 28 28 28 29
24 23 22 21 21 21 20 20 20 22 23 24 25 26 27 26 26 26 26 25 25 26 27 29 30 30 30 30 29 30 32 33 32 32 31 32 32 32 31 31 31 30 28 27 27 26 26 25 25 24 24 23 23 23 23 22 21 20 19 19 20 19 18 16 16 15 13 13 17 21 24 24 26 26 27 29 31 30 28 28 29 30 30 30 29 29 30
23 24 24 24 24 23 22 21 20 20 21 24 26 27 27 27 28 28 29 29 29 29 29 31 32 32 33 33 32 32 32 34 34 33 32 32 33 33 32 32 32 31 30 29 29 29 28 27 27 27 27 26 25 25 25 25 24 22 21 20 21 21 21 19 18 18 15 12 13 19 23 25 28 29 30 32 35 34 32 31 31 33 34 35 33 31 30
21 23 24 25 26 25 24 23 21 19 20 23 25 26 27 27 27 27 28 29 29 29 30 31 32 33 34 34 35 34 33 34 35 35 34 33 33 33 33 32 32 32 32 31 30 29 29 29 29 29 29 28 27 27 27 27 26 25 23 22 22 23 23 21 19 20 18 15 16 20 23 25 29 31 33 36 39 39 38 36 35 35 38 39 37 33 30
19 21 22 23 24 24 24 23 22 20 20 21 22 23 23 23 23 23 25 26 26 27 27 28 29 31 31 32 32 33 33 34 36 37 36 34 34 34 34 33 33 34 34 33 32 31 30 30 30 31 30 30 29 28 28 27 27 27 26 24 24 24 24 23 21 21 21 21 21 21 21 22 25 28 32 36 39 41 42 39 37 37 39 39 37 34 33
17 17 17 17 18 19 20 20 19 18 18 18 19 20 20 19 18 19 20 21 22 23 24 24 24 25 25 26 27 29 30 32 35 37 37 36 35 35 34 34 35 35 35 35 35 35 33 32 32 32 32 31 30 30 29 28 28 28 27 26 26 25 25 25 23 22 22 23 24 24 23 22 22 23 25 27 28 33 38 39 37 36 37 37 35 34 32
15 14 13 13 14 15 16 16 16 17 17 17 18 18 18 17 16 16 17 17 18 19 19 19 18 19 20 21 22 23 24 26 29 32 35 36 36 36 36 36 37 37 37 37 36 35 35 33 33 34 34 33 31 31 31 30 29 28 27 26 26 26 26 26 25 23 22 23 23 24 24 23 22 22 23 23 22 23 27 30 30 28 28 30 32 30 28
14 14 14 13 12 13 15 15 17 17 17 17 16 16 16 16 16 16 17 18 19 19 19 18 18 19 19 20 20 21 22 22 23 25 27 29 30 32 33 34 35 36 36 36 35 34 34 34 35 35 34 33 32 31 31 31 31 30 28 27 27 26 26 26 26 26 24 23 23 23 23 22 22 23 23 23 22 22 22 23 23 22 20 23 27 27 25
12 13 13 14 14 15 15 16 16 16 16 15 15 15 15 15 16 16 17 18 19 20 20 21 21 21 22 22 23 23 24 24 24 24 24 25 26 27 28 29 30 31 32 33 34 33 32 33 35 36 34 32 32 32 31 30 30 30 29 29 28 28 28 28 28 28 27 25 24 23 23 24 25 26 25 24 23 24 24 24 24 23 22 24 26 27 27
11 12 13 14 16 16 16 16 16 15 15 14 13 13 13 14 15 16 17 18 19 20 21 22 22 23 24 24 25 26 26 26 27 27 27 27 27 28 28 28 29 30 30 31 31 31 31 33 35 35 32 30 31 33 33 32 31 30 30 30 30 29 29 29 29 29 29 27 26 26 26 26 25 26 27 26 25 25 25 24 24 24 24 25 27 28 28
9 11 12 14 15 15 14 14 13 13 12 12 11 12 12 13 14 15 17 18 19 20 21 22 24 24 25 26 27 28 29 29 29 30 30 30 30 30 30 30 30 30 30 30 31 32 33 35 35 33 31 30 31 32 33 33 33 32 32 32 32 31 30 29 29 29 29 28 27 27 27 27 26 25 26 27 27 27 26 26 26 28 29 30 31 32 32
10 11 12 12 13 12 11 11 10 10 10 10 10 11 12 13 14 15 17 18 19 21 23 24 26 27 28 29 30 31 32 32 32 33 33 34 34 34 33 33 33 33 33 34 34 35 37 37 36 33 33 33 34 34 34 33 33 33 33 33 33 32 31 30 29 29 29 28 28 27 27 28 28 27 28 28 29 30 31 30 29 31 33 35 36 37 37
11 10 11 11 11 10 9 9 8 8 8 9 10 10 12 13 14 15 16 18 19 21 23 25 27 29 30 32 33 34 35 36 36 37 37 37 37 37 37 37 37 37 37 37 38 39 39 39 38 38 38 37 36 35 35 34 33 32 31 31 30 29 28 28 28 30 30 30 30 30 29 29 30 30 30 29 30 32 33 33 32 32 33 34 36 37 37
11 9 9 8 8 8 7 7 6 6 7 7 8 8 9 10 11 12 14 16 18 21 23 25 27 29 31 33 34 36 37 38 39 40 41 41 41 41 41 41 41 41 41 41 41 41 41 41 42 42 41 40 37 36 35 33 33 32 31 30 29 28 27 27 29 31 33 33 33 33 32 32 33 32 32 31 32 34 34 33 32 32 32 33 34 35 35
10 8 7 6 6 6 5 5 4 4 4 4 5 6 7 9 10 12 14 16 19 22 24 27 28 30 32 33 34 36 37 39 40 41 42 43 44 44 44 43 43 43 43 43 43 43 42 42 43 43 42 40 38 36 34 31 30 29 29 28 28 29 29 29 31 32 34 34 34 33 33 33 33 33 34 34 35 36 36 35 34 34 34 35 35 36 36
10 9 8 7 6 5 4 3 3 3 3 4 6 7 9 10 11 12 13 15 18 20 22 24 26 27 29 29 30 31 32 34 36 37 39 41 42 43 44 44 44 43 43 43 43 43 43 42 42 41 41 39 36 32 30 30 30 30 30 29 29 30 31 31 33 34 35 35 33 32 32 33 33 33 34 36 36 36 36 36 36 37 37 36 36 36 37
10 9 8 6 5 4 3 2 3 4 5 6 6 7 8 8 9 9 11 12 13 14 14 15 16 17 19 20 21 21 22 23 25 27 29 32 35 37 39 40 40 40 40 40 40 40 40 41 40 39 38 38 36 34 31 30 31 32 33 34 34 34 35 36 36 38 39 39 37 36 36 36 36 36 36 37 38 38 38 38 38 39 39 39 39 39 39
10 9 7 6 5 4 3 3 4 4 3 3 4 4 5 5 6 7 9 12 13 14 15 15 15 15 15 16 16 17 17 18 18 19 20 22 24 27 30 33 34 35 36 36 36 36 36 37 38 37 36 35 35 36 36 36 36 35 35 36 37 38 39 39 38 38 39 40 41 40 39 38 39 39 39 38 39 40 41 41 40 40 39 39 40 40 40
8 8 7 6 5 5 4 3 2 1 1 2 3 4 4 5 6 8 10 13 15 17 18 18 17 16 15 14 15 16 16 17 17 17 18 18 18 20 22 24 27 29 31 32 33 33 33 34 34 35 36 35 33 34 35 38 40 40 40 40 39 39 39 40 39 38 38 39 40 41 40 40 41 42 42 42 41 42 43 44 44 44 43 42 42 41 41
8 7 6 6 5 5 4 4 4 4 4 4 5 5 6 6 8 9 11 13 15 17 18 19 19 19 18 16 15 15 15 15 16 17 17 17 17 17 17 19 20 22 25 27 29 31 32 32 32 33 35 36 36 35 35 35 37 39 41 42 43 42 42 42 41 41 41 41 42 43 44 44 44 43 42 42 41 41 42 42 43 43 44 44 43 42 40
8 7 7 6 6 6 6 5 4 5 6 6 7 8 8 9 10 11 13 14 16 17 18 19 20 20 20 20 19 18 17 16 16 16 16 16 16 16 16 16 16 17 19 21 23 26 28 30 31 32 33 34 36 37 38 37 37 36 36 38 39 41 42 42 42 42 41 42 42 44 45 46 47 46 45 43 42 41 40 40 40 40 40 40 39 38 37
7 7 7 7 7 7 6 5 6 7 8 8 9 9 10 11 11 12 14 15 17 18 20 21 21 22 21 21 21 20 20 19 18 18 17 17 16 16 16 16 16 16 15 16 17 19 21 24 27 29 31 32 34 35 36 37 38 38 37 36 36 36 36 37 38 39 39 39 40 42 43 45 46 47 47 46 44 43 41 40 40 39 39 38 37 35 34
7 7 8 8 7 7 7 7 7 7 8 8 8 9 10 10 11 12 14 15 17 19 20 21 22 23 23 22 22 21 20 20 19 19 18 18 17 17 16 16 16 16 16 15 15 15 16 17 19 22 25 28 31 32 34 35 36 37 38 38 38 38 37 36 35 35 35 35 36 37 39 40 41 42 42 42 41 40 39 38 36 36 35 35 34 33 32
6 7 7 7 7 7 6 6 6 6 7 8 8 9 9 10 11 12 13 15 16 18 19 21 22 23 23 23 23 22 21 20 19 18 18 18 18 17 17 17 16 16 16 16 16 16 15 15 15 16 18 20 23 26 29 31 33 34 36 38 39 40 40 40 39 38 37 37 36 36 36 37 37 37 37 37 36 36 35 35 35 34 33 32 32 32 32
5 5 6 7 7 6 5 4 4 5 6 7 8 8 9 10 11 12 13 14 15 16 18 19 20 21 22 23 23 23 23 22 21 21 20 19 19 18 18 18 18 17 17 16 16 16 17 17 17 17 17 17 17 19 21 23 26 28 30 32 34 36 38 39 40 40 40 40 40 40 39 38 38 37 37 37 36 36 36 36 36 35 34 32 32 32 33
6 6 6 7 6 5 4 4 4 5 5 6 7 8 9 9 10 10 11 13 14 15 16 17 18 20 21 22 22 23 24 24 24 24 23 23 22 21 19 18 18 18 18 17 17 16 16 16 17 18 18 18 18 19 19 19 20 21 23 25 28 30 32 33 35 36 37 37 38 40 40 39 39 38 38 38 38 38 37 37 37 37 36 34 34 34 35
6 6 6 6 6 5 4 4 4 4 5 6 7 8 8 9 9 10 11 12 13 14 15 16 17 18 19 20 21 22 23 23 24 24 24 25 25 24 22 20 20 20 19 19 18 17 17 17 17 17 17 17 18 19 20 20 21 21 21 21 23 24 25 26 27 29 31 32 33 34 35 35 36 36 36 36 36 37 37 37 37 36 36 35 35 35 36
5 5 5 5 5 4 4 4 4 4 5 5 6 7 8 9 9 10 10 11 12 13 14 15 16 17 18 19 20 21 22 23 23 24 24 25 25 26 25 23 22 22 21 20 19 18 18 18 18 19 18 18 18 18 18 19 21 22 22 22 23 23 23 23 24 25 26 27 28 29 29 30 31 32 32 33 33 34 34 35 35 35 34 34 34 34 35
4 4 4 4 4 4 4 4 4 4 5 5 6 7 8 8 9 9 10 10 11 12 13 14 15 16 17 18 19 20 21 22 22 23 24 24 25 26 26 25 24 24 23 22 21 21 20 20 20 21 21 20 20 19 18 18 18 19 21 23 24 24 24 23 24 24 25 25 26 26 26 26 27 28 29 29 30 30 31 31 31 31 31 31 31 31 32
4 4 4 5 4 4 4 4 4 5 5 6 6 7 8 8 8 9 9 9 10 11 12 14 15 16 16 17 18 19 20 21 22 22 23 23 23 25 26 26 26 26 25 24 23 22 22 21 21 21 21 22 21 21 20 20 19 19 19 20 22 23 24 24 24 24 25 25 25 25 25 25 25 25 26 27 27 28 28 28 28 28 28 28 27 28 28
4 4 4 5 5 4 4 4 5 5 5 6 6 7 8 8 8 8 8 8 9 11 12 13 14 15 15 16 17 18 19 20 21 22 23 23 23 24 25 25 26 26 26 26 25 24 23 23 23 23 23 23 23 23 22 22 21 21 20 20 20 20 22 23 23 23 23 24 25 25 25 25 24 24 24 24 25 26 26 26 27 27 26 26 26 26 26
5 5 5 5 5 4 4 5 5 5 5 6 6 7 8 8 8 8 8 8 9 10 12 12 13 15 15 16 17 18 19 19 20 21 22 23 23 24 25 25 26 27 27 27 26 26 25 25 25 25 25 24 24 24 24 24 23 22 21 21 20 19 19 20 21 21 21 22 23 23 24 25 25 24 23 23 23 24 24 25 25 25 25 25 25 25 25
5 5 5 5 5 5 5 4 4 4 5 5 6 7 7 8 8 8 8 9 10 11 12 13 14 15 16 16 17 18 19 20 20 21 22 22 23 24 25 25 26 26 27 27 27 27 27 26 26 25 25 26 26 25 24 25 25 24 22 21 20 19 18 18 19 20 20 20 20 21 21 22 23 23 23 23 23 23 23 24 24 24 24 24 24 24 25
5 6 6 6 5 5 4 3 4 4 4 5 6 7 7 8 8 8 8 9 10 11 12 14 15 15 16 16 17 18 19 20 21 22 22 22 22 23 24 24 25 26 27 28 28 28 28 28 27 26 26 25 26 26 25 25 25 25 24 22 20 20 19 17 18 19 20 18 17 18 19 20 20 21 22 23 23 23 23 23 23 23 23 23 23 23 24
6 7 6 6 5 4 4 3 3 4 4 5 5 6 7 8 8 8 9 9 10 11 13 14 15 16 16 17 17 18 19 20 21 22 23 23 23 23 24 25 26 27 28 29 29 29 29 29 28 28 27 26 25 25 25 25 24 25 24 23 21 20 20 18 17 19 19 18 17 17 18 19 19 19 19 21 22 23 23 23 23 23 23 22 22 23 24
7 7 7 6 5 4 4 3 3 3 4 4 5 6 7 8 8 9 10 10 11 12 13 14 15 16 17 17 18 19 20 21 22 23 23 24 24 24 25 26 27 28 29 29 30 30 30 30 29 29 29 28 27 26 25 25 24 25 24 23 22 21 20 19 18 17 18 18 18 18 20 20 20 19 19 20 21 22 23 23 23 22 22 22 22 22 23
8 8 7 6 5 4 3 3 2 2 3 4 5 6 7 8 9 9 10 11 12 13 14 15 16 17 18 19 19 20 21 21 22 23 24 24 24 24 25 25 26 28 29 29 30 30 30 30 30 30 30 30 30 29 27 26 25 24 25 24 23 22 21 20 19 18 18 18 18 19 20 21 21 20 20 20 20 20 21 22 23 22 21 21 22 22 23
9 8 7 6 5 4 2 1 1 2 4 5 5 6 7 8 9 10 11 12 13 14 15 16 17 18 19 20 20 21 22 23 23 23 24 25 25 25 25 25 26 27 29 30 31 31 31 31 31 31 31 31 31 31 30 28 26 24 24 25 24 23 22 21 20 19 18 18 18 19 19 19 20 20 20 19 19 19 20 21 22 22 22 22 22 23 24
9 8 7 6 5 3 2 1 2 4 5 6 7 8 8 9 10 11 12 13 14 15 16 17 18 19 20 21 22 22 23 24 24 25 25 26 26 26 25 26 27 28 29 30 31 31 32 31 31 31 31 31 31 32 32 31 28 26 24 24 25 24 23 22 22 21 20 19 18 18 18 18 19 19 19 19 19 19 18 19 20 21 22 23 23 24 24
10 8 7 6 5 4 4 4 4 6 7 9 9 9 10 11 12 12 13 14 15 16 17 18 19 20 21 22 23 24 24 25 25 26 26 27 27 26 26 26 27 28 29 30 31 32 32 32 32 31 31 31 32 32 33 33 32 29 26 24 24 25 25 24 23 23 22 20 19 18 18 18 18 19 19 20 20 19 19 19 19 20 21 23 25 25 25
10 9 7 7 6 6 6 6 7 8 10 11 11 11 12 13 14 14 15 15 16 17 18 19 20 21 22 23 24 25 25 26 27 27 27 27 28 28 27 27 27 28 29 30 31 32 32 32 32 32 31 31 32 32 33 33 33 32 30 27 25 25 25 26 25 24 24 23 21 19 18 18 19 19 19 20 20 19 19 20 21 21 21 23 25 26 26
11 9 8 7 7 7 8 8 9 10 11 12 13 13 13 14 15 16 17 17 18 19 20 20 21 22 23 24 25 25 26 27 28 28 28 28 29 29 29 28 28 28 29 30 31 32 33 33 33 32 32 31 31 32 32 33 33 33 32 30 27 25 24 25 25 25 25 25 24 22 20 19 19 19 19 19 19 19 19 22 23 24 23 24 25 27 27
Wind_Direction
227 220 213 214 216 218 220 222 222 223 225 226 228 230 232 236 239 243 246 249 253 257 260 263 264 259 255 256 258 258 253 250 255 259 259 259 261 262 264 266 266 266 266 267 269 271 272 274 277 279 280 279 278 278 278 275 274 276 275 273 273 274 272 263 253 251 256 257 254 244 228 221 230 237 228 226 231 233 231 227 222 224 228 228 224 223 228
233 232 225 218 217 218 220 222 224 225 226 227 230 234 237 240 242 245 249 252 255 258 259 260 262 259 254 255 255 252 249 249 251 250 250 252 255 258 260 261 262 263 263 264 267 270 272 274 276 279 279 278 276 275 275 277 278 277 277 277 278 280 276 264 253 250 253 255 254 246 229 219 227 232 219 220 233 237 233 227 222 226 233 230 224 225 230
233 236 234 227 222 222 223 224 225 227 227 229 232 235 239 244 246 247 249 252 254 257 259 261 263 264 261 259 256 252 250 248 244 241 243 249 254 257 259 260 261 263 263 264 266 269 272 274 275 276 275 273 272 269 269 271 273 276 279 279 279 279 275 266 256 251 250 249 247 243 232 224 229 229 215 216 232 240 235 226 220 225 232 226 220 225 230
233 234 234 231 227 225 225 225 226 228 231 233 234 235 239 244 246 248 249 251 251 254 258 262 264 264 262 259 255 250 247 244 240 237 239 247 252 255 256 259 261 263 264 266 267 269 273 275 275 275 272 268 265 265 266 267 269 273 278 281 280 276 270 265 257 249 247 244 242 240 234 228 228 227 218 216 230 242 237 226 220 224 227 222 220 225 228
236 236 234 233 230 227 225 224 226 229 233 235 235 236 239 243 245 246 247 248 250 253 257 261 261 261 259 257 251 246 243 240 239 239 241 245 250 252 252 253 256 260 263 266 269 271 275 279 281 280 276 272 267 265 266 269 274 279 282 286 287 279 269 264 257 248 242 239 241 240 234 226 224 225 220 217 227 241 238 225 220 222 222 223 227 228 228
237 238 237 234 232 230 227 226 227 230 233 234 235 238 241 243 246 246 244 244 248 253 256 258 258 257 256 255 250 244 241 240 241 242 244 246 249 251 252 251 252 255 258 262 267 270 273 278 283 286 284 280 274 269 269 272 281 289 291 292 291 282 272 264 252 244 242 243 242 239 234 228 227 228 222 215 224 239 235 222 219 220 222 228 234 231 228
235 235 236 234 231 232 231 230 230 231 232 234 236 239 241 243 247 247 242 241 245 250 251 251 251 254 256 256 252 247 242 242 243 242 242 245 248 250 252 253 254 254 257 260 263 265 268 272 277 280 282 283 281 277 276 277 283 290 292 292 290 281 272 265 247 233 241 253 248 237 231 230 229 227 219 215 225 236 228 217 217 220 223 229 233 232 230
229 227 228 227 227 230 231 230 229 229 230 233 236 239 242 245 251 252 246 244 247 250 251 250 251 256 259 255 251 248 244 243 245 243 241 242 245 249 251 253 256 257 258 260 261 262 265 267 270 272 276 280 282 282 282 282 283 286 287 289 290 285 275 269 256 237 239 249 244 230 226 230 229 222 214 215 225 229 219 214 221 226 226 229 232 234 235
228 223 222 221 222 227 231 231 230 229 230 232 234 239 244 249 254 257 254 250 248 249 251 252 253 256 258 253 247 246 245 243 245 245 245 243 243 247 249 251 254 256 256 257 258 261 263 265 266 267 270 274 278 280 282 283 283 283 282 282 285 288 282 268 259 248 238 236 234 228 225 228 227 222 219 221 224 220 214 218 229 234 234 235 234 237 240
233 232 229 224 224 228 234 237 236 234 235 236 237 240 244 248 251 254 255 253 250 249 250 252 253 254 255 252 247 245 244 245 245 246 247 246 245 246 248 249 249 249 249 252 255 257 260 262 263 265 267 269 273 276 279 281 282 282 282 282 281 285 286 276 267 256 232 217 220 230 231 229 228 227 228 230 225 217 217 226 237 239 239 238 236 238 240
239 240 240 238 235 237 241 242 240 239 240 240 240 241 243 244 246 249 251 252 252 251 250 251 251 252 253 253 250 246 245 246 246 247 247 247 247 246 247 250 250 247 245 247 250 253 255 258 261 263 264 266 268 272 275 277 280 279 278 280 280 280 282 280 278 272 241 212 210 219 226 232 234 231 228 226 221 218 224 235 241 240 240 238 235 235 237
241 244 244 244 244 244 245 245 243 242 242 241 242 243 244 244 246 247 249 250 252 254 255 254 253 252 253 254 253 250 248 247 247 248 247 247 247 246 245 247 250 251 249 247 247 249 251 254 257 260 262 263 266 268 271 273 275 275 274 275 277 279 280 279 277 276 260 228 218 220 220 224 231 231 227 222 218 221 231 239 241 242 241 239 235 233 234
239 241 243 244 244 244 245 246 246 244 244 243 243 244 245 246 247 248 250 251 253 255 255 256 255 255 254 254 254 253 251 249 247 247 247 247 248 248 248 247 248 250 251 251 249 249 250 252 254 257 259 261 263 265 268 269 270 271 271 271 272 275 277 279 277 274 267 254 248 243 231 222 222 224 225 223 222 227 235 239 239 239 239 238 236 236 236
237 238 240 242 242 242 244 246 246 245 243 242 243 244 245 247 248 249 249 251 252 252 251 252 254 256 256 255 254 253 252 249 248 247 247 248 248 249 251 251 250 251 252 252 252 251 252 253 254 255 257 258 259 261 264 266 268 268 268 268 268 271 273 274 274 273 269 263 259 253 242 232 228 227 226 226 226 228 234 237 236 235 238 239 240 241 244
238 237 238 241 243 243 243 244 244 244 243 242 243 244 244 245 246 246 246 247 248 248 248 250 252 255 257 257 256 254 252 251 248 247 247 249 251 252 253 254 254 254 254 254 254 253 253 254 255 256 257 257 258 258 260 262 265 267 268 268 267 268 270 271 270 268 266 263 260 258 255 250 245 240 237 236 234 230 230 233 235 235 237 241 243 246 249
236 236 236 239 241 241 241 241 240 240 240 240 241 242 243 242 241 243 244 245 245 246 247 248 251 254 256 258 257 255 255 254 252 250 249 250 252 253 254 255 256 256 255 256 256 256 255 253 254 255 256 256 257 258 257 258 260 263 266 268 267 266 267 269 269 266 263 261 260 260 261 260 258 255 251 249 246 238 232 232 236 238 241 244 245 245 244
224 225 226 230 232 232 235 233 226 223 227 230 232 234 236 236 235 236 237 240 244 248 249 250 252 255 257 258 259 259 259 258 257 255 253 252 253 254 256 257 258 258 256 255 256 257 257 255 254 253 253 254 256 257 257 257 256 258 260 262 263 263 264 266 268 267 264 263 262 261 261 260 260 260 259 259 258 249 238 234 235 237 237 236 234 231 229
212 211 210 211 211 210 213 211 205 206 213 217 219 221 226 229 230 231 232 235 241 246 248 248 250 253 255 256 257 258 259 259 259 258 258 257 256 257 258 259 260 260 259 257 255 255 256 256 255 253 252 252 253 256 257 257 257 257 258 259 260 260 260 261 264 266 265 264 262 259 257 257 258 260 260 259 256 251 246 245 246 243 236 229 227 229 231
198 200 199 198 195 195 202 207 207 207 210 210 211 215 221 225 229 232 235 238 242 245 248 249 250 252 253 255 256 257 258 259 260 260 261 260 260 260 260 261 261 261 260 259 257 255 254 254 254 254 254 252 250 251 254 256 256 257 258 259 260 261 260 260 260 262 261 258 254 252 252 255 256 255 255 256 255 253 253 254 254 250 242 235 235 239 240
180 184 187 191 193 196 203 208 209 210 210 210 214 221 225 231 235 238 241 244 247 250 252 254 255 255 256 257 257 258 258 259 260 260 260 260 260 260 261 261 261 262 261 261 259 256 251 250 252 256 258 255 250 249 251 253 256 257 258 259 260 260 261 261 261 261 260 256 252 251 251 251 250 249 251 255 258 258 256 252 249 245 238 233 234 236 236
172 173 177 181 183 185 190 194 197 201 205 209 217 224 231 236 241 244 247 250 252 254 255 256 257 258 258 258 259 259 258 258 258 258 258 258 258 258 259 259 259 259 258 258 258 255 252 252 255 259 263 263 258 255 254 255 257 258 259 259 259 259 258 257 256 255 255 254 253 253 252 250 249 250 251 252 253 254 252 249 244 239 233 230 232 235 239
172 173 177 178 177 178 182 188 193 198 205 214 223 232 240 245 250 253 256 258 259 260 260 260 259 259 259 258 258 258 258 258 258 257 256 256 256 256 256 256 256 255 253 252 253 253 255 257 260 261 262 263 262 260 258 257 257 259 260 260 261 260 258 258 256 254 253 253 254 254 252 250 251 253 255 256 255 253 251 249 246 241 236 234 236 240 245
163 171 176 179 182 185 189 197 207 214 223 232 240 247 253 257 262 265 265 266 267 267 267 266 264 263 263 261 260 259 259 259 259 258 257 256 256 255 254 254 254 254 252 251 251 251 253 255 257 257 258 260 262 262 260 259 257 256 254 255 256 256 254 253 254 257 258 258 260 260 258 255 254 254 255 257 257 255 254 254 253 251 248 246 246 247 250
154 166 176 181 189 195 200 212 223 231 240 246 251 256 262 266 271 274 275 276 276 275 273 273 271 270 269 268 267 265 264 262 261 260 259 258 257 256 255 254 253 252 252 252 251 251 251 252 252 254 256 258 259 259 258 258 257 255 251 248 248 249 247 241 239 246 251 252 253 257 258 258 258 257 255 254 254 255 258 259 257 256 256 255 254 254 255
151 160 169 176 180 180 184 196 207 216 230 244 256 268 277 282 285 287 289 290 289 287 286 284 282 279 277 275 273 271 269 267 265 263 261 260 259 258 257 256 255 253 253 252 252 251 251 251 252 253 253 254 255 254 253 252 249 247 247 246 246 247 246 240 234 237 243 243 241 243 247 250 254 256 257 256 255 255 256 257 256 255 255 255 256 256 256
149 154 157 159 158 156 160 174 195 225 251 267 277 282 285 288 291 295 298 300 299 296 292 288 284 281 279 278 278 277 275 273 272 269 267 264 262 261 260 259 258 256 255 255 253 252 251 250 251 252 252 251 249 248 248 247 243 236 233 234 238 240 240 237 233 235 239 240 239 239 242 245 248 251 253 255 257 257 257 257 256 256 255 255 254 253 252
148 149 149 149 149 156 178 207 237 257 264 269 275 280 284 290 295 300 308 314 316 315 312 307 301 296 292 291 292 293 292 291 288 284 280 275 270 266 264 263 262 261 260 259 258 257 255 253 251 250 251 250 247 242 237 237 238 235 231 231 234 236 236 235 234 235 237 239 242 245 248 250 252 253 253 253 254 255 256 256 253 252 251 250 250 249 249
150 151 154 158 162 179 201 214 228 241 255 273 289 302 310 314 317 323 333 344 352 355 356 353 345 336 328 321 317 315 315 314 313 310 304 295 285 276 270 266 263 262 261 261 260 260 260 260 258 256 253 251 248 242 236 232 232 233 233 233 235 237 238 240 240 241 242 243 245 250 253 254 255 256 256 255 254 253 254 253 252 251 250 250 249 249 250
148 152 156 158 162 168 171 168 166 130 37 11 3 1 357 351 349 349 353 2 8 12 13 13 9 3 354 344 335 330 327 325 325 324 321 315 305 294 283 274 268 263 260 258 258 258 258 259 261 261 260 258 254 249 243 238 236 236 236 237 238 239 239 239 239 240 242 243 245 247 248 247 247 248 249 250 251 251 252 253 254 255 256 257 257 257 258
142 144 145 144 140 131 113 93 75 63 54 46 41 33 25 19 15 9 9 12 15 17 18 19 19 18 15 8 359 350 341 335 330 328 326 323 318 310 299 289 280 272 266 261 258 256 256 255 255 256 258 260 260 258 254 251 248 245 243 244 246 247 245 243 240 239 238 239 240 242 243 243 244 245 247 247 248 248 250 252 253 254 255 256 258 259 259
136 134 130 122 109 98 89 84 81 77 70 62 55 47 41 38 34 27 22 21 21 21 21 20 21 22 21 19 15 11 4 356 348 340 334 330 326 321 315 307 298 289 281 273 267 262 259 257 256 254 254 254 255 257 257 258 258 257 255 253 254 254 254 252 250 248 247 246 245 244 244 244 245 247 250 253 253 253 254 256 257 257 256 256 257 257 258
128 125 119 110 103 100 105 107 96 84 75 68 61 54 49 47 44 38 33 30 28 26 24 22 21 21 21 20 20 18 16 12 6 359 352 344 336 330 324 319 313 308 302 295 287 278 271 265 261 259 257 255 254 254 254 255 256 257 258 258 258 259 259 258 256 256 256 255 253 252 251 249 248 249 251 254 256 257 258 259 259 260 260 260 259 259 259
133 130 121 114 112 112 111 106 94 83 75 69 62 55 50 47 44 40 36 33 31 28 25 23 22 21 20 20 19 19 19 16 13 9 5 359 353 345 336 329 323 317 311 307 303 298 292 284 275 269 264 261 259 258 256 255 254 253 254 255 256 257 259 261 260 260 258 257 257 256 255 254 253 252 252 253 255 256 256 257 257 258 258 259 259 260 260
138 132 125 123 121 116 108 101 92 80 70 62 55 49 45 42 39 36 33 31 30 28 26 24 22 20 19 18 17 17 17 16 14 11 9 6 3 359 353 347 341 332 323 316 310 305 302 299 295 289 282 275 270 266 264 261 258 256 254 254 254 255 256 258 259 260 260 259 258 258 257 256 255 254 254 254 255 257 257 258 257 258 258 259 261 262 263
140 140 139 136 130 119 107 96 83 70 64 58 50 43 37 35 32 30 28 28 27 26 25 24 22 20 19 17 16 14 14 13 12 10 9 7 6 5 3 359 355 350 344 336 328 319 311 305 301 299 296 293 288 283 277 272 267 263 260 259 258 257 257 257 258 259 260 260 260 259 259 259 259 258 258 258 259 260 261 261 261 262 262 263 263 264 264
160 161 156 149 139 125 107 88 72 59 52 49 42 34 28 25 22 22 22 23 23 24 24 23 22 21 20 18 16 14 13 12 11 9 7 4 5 7 6 2 359 358 355 351 345 340 333 324 315 308 302 299 295 293 290 287 282 276 271 267 265 263 261 260 260 260 260 260 260 261 261 262 262 261 261 261 261 261 261 261 262 262 262 262 262 262 262
168 167 161 151 140 125 102 83 68 53 43 36 31 24 18 14 12 13 15 17 19 21 23 23 23 22 22 21 18 16 15 13 11 9 6 3 1 3 5 3 359 359 358 355 350 347 345 341 335 328 320 312 304 298 293 290 288 285 281 278 275 272 270 267 265 264 264 263 262 262 262 262 261 260 260 259 258 257 257 257 257 258 258 258 257 257 257
166 161 151 142 131 114 94 76 61 47 35 27 20 15 10 6 6 8 11 13 15 18 20 22 23 23 24 23 21 19 17 15 13 10 8 4 360 360 1 359 356 355 356 352 347 345 345 343 339 336 334 330 323 315 306 298 292 287 283 280 278 277 275 274 273 272 270 269 267 266 264 262 261 260 258 257 256 255 254 254 253 254 254 254 253 252 253
149 143 135 130 121 105 88 71 55 41 30 22 16 12 9 7 7 8 9 10 13 15 18 21 23 24 23 22 21 19 18 17 14 12 10 6 1 358 358 356 353 351 351 349 345 344 343 341 337 335 333 332 330 327 323 316 307 298 290 284 280 277 275 273 273 274 274 273 272 270 268 266 264 262 260 259 258 257 256 255 254 253 253 252 251 251 251
147 146 140 133 122 103 84 67 53 43 35 27 21 17 14 12 11 11 10 11 13 14 16 18 21 22 21 20 18 16 16 15 14 12 10 8 3 358 356 354 351 348 347 346 344 342 340 337 333 330 330 329 328 328 327 324 319 313 305 296 288 282 277 273 271 271 273 274 273 271 269 267 265 264 263 263 261 260 259 259 258 257 256 255 255 254 253
160 153 142 132 121 105 87 72 60 51 43 34 27 22 18 15 14 13 12 11 12 14 15 16 17 18 18 16 14 13 12 12 10 9 8 6 3 358 355 353 351 347 344 343 341 339 338 336 333 330 329 328 327 328 328 327 323 320 315 309 302 294 286 279 273 270 269 271 271 271 270 269 268 266 265 264 263 262 261 260 260 259 258 257 256 255 255
165 153 141 131 119 104 92 82 70 58 47 38 31 25 20 17 15 13 10 8 7 8 9 11 11 12 12 10 8 7 8 7 6 5 4 2 360 357 354 352 349 345 342 339 338 336 335 335 334 333 332 329 327 327 327 326 325 323 319 314 309 303 297 290 282 274 268 266 267 269 269 269 269 268 266 264 263 262 261 259 258 258 257 256 255 255 254
165 152 141 132 121 111 103 92 77 63 49 39 31 26 20 16 13 9 4 1 359 359 359 0 2 2 2 1 359 360 1 1 360 359 359 358 356 354 352 349 346 343 339 337 335 334 334 334 334 334 332 330 328 327 325 323 322 321 321 318 313 307 302 297 290 282 273 268 267 269 270 269 268 268 267 265 263 262 260 258 257 256 254 253 253 251 250
166 154 144 137 129 122 112 96 78 63 49 35 26 22 18 13 8 3 357 352 349 348 349 350 350 352 353 352 350 351 353 354 354 353 354 354 352 351 350 348 345 343 340 337 334 333 332 332 333 333 332 329 327 325 323 321 320 319 320 319 315 309 304 298 292 289 287 282 275 273 272 271 268 267 267 266 264 263 261 259 258 256 254 252 249 247 246
168 157 150 145 139 130 117 98 75 57 42 28 18 13 10 6 0 355 350 345 341 340 340 342 343 344 345 345 344 345 347 348 348 349 349 349 348 347 347 347 346 343 340 337 334 332 331 330 330 330 330 329 327 324 321 319 318 317 317 317 313 309 305 300 293 290 291 289 281 274 272 270 268 268 268 267 265 263 261 259 257 256 255 252 249 246 244
171 162 158 155 148 137 125 104 76 48 29 17 9 3 0 357 353 349 345 342 338 337 337 338 339 341 342 342 342 343 344 345 346 345 345 344 343 343 343 343 343 342 339 336 334 331 329 328 328 328 327 328 327 326 323 319 316 315 315 314 311 307 303 300 297 292 290 287 280 273 271 271 271 272 273 271 268 265 262 259 257 255 253 251 248 245 243
174 169 166 161 154 147 132 105 75 41 17 7 1 354 350 348 346 344 342 341 339 338 338 339 339 340 341 342 343 343 344 345 345 344 343 341 340 339 339 340 340 340 338 336 333 331 329 328 327 327 327 327 327 327 325 322 318 314 312 312 310 306 300 297 296 293 291 287 283 278 276 275 275 274 273 273 271 268 264 260 258 256 253 249 246 244 242
181 176 173 170 167 162 149 99 39 6 353 349 347 345 342 340 341 341 341 341 340 338 338 339 339 339 339 341 343 343 344 345 345 343 341 340 339 339 338 338 338 338 337 335 334 332 330 329 327 326 326 326 326 326 325 324 320 315 311 309 309 306 300 295 293 291 290 289 286 284 283 282 279 274 270 269 269 269 266 261 257 255 252 247 244 244 243
188 185 184 185 188 194 215 289 327 333 330 330 333 334 332 331 333 335 336 338 339 338 337 339 339 337 337 339 341 342 343 344 344 342 341 340 339 338 337 336 336 336 336 335 334 332 330 328 326 325 325 325 325 325 325 324 322 318 311 306 304 303 300 295 290 288 287 287 286 285 284 282 279 276 273 270 268 268 266 262 258 256 253 249 245 245 245
196 197 200 206 215 231 256 285 305 311 313 318 325 328 325 324 326 328 330 334 336 335 336 338 337 335 334 337 339 340 340 341 341 341 341 340 338 336 334 333 334 335 335 334 332 330 329 327 326 324 324 324 324 324 324 324 323 320 314 306 300 298 297 294 290 286 282 281 281 281 280 278 275 273 272 271 270 268 266 264 260 257 253 250 247 246 247
206 211 219 228 240 253 268 282 291 296 303 311 319 321 319 319 319 320 323 328 330 330 332 334 334 331 331 334 336 337 337 338 339 340 340 338 337 335 334 334 335 335 334 333 331 330 328 327 325 324 323 323 323 324 324 324 323 321 318 312 303 296 293 292 290 286 282 279 276 275 275 275 273 270 269 271 271 270 268 266 263 259 255 251 247 246 247
215 223 234 245 257 267 275 281 286 291 297 305 310 313 314 315 315 315 318 322 324 325 328 330 330 328 329 331 333 333 334 335 337 338 337 336 335 335 335 335 334 333 333 333 332 330 328 327 325 324 323 322 322 322 323 324 323 322 319 316 310 301 294 289 286 283 280 277 275 273 271 271 271 269 268 267 266 264 261 261 261 262 259 255 249 245 245
Height
5688 5690 5693 5695 5696 5698 5699 5701 5702 5704 5706 5707 5709 5709 5710 5711 5712 5713 5714 5715 5717 5718 5719 5720 5721 5722 5723 5723 5724 5725 5726 5727 5728 5728 5728 5728 5728 5728 5728 5728 5728 5728 5728 5729 5729 5729 5729 5728 5729 5729 5729 5730 5730 5730 5730 5730 5730 5730 5730 5730 5729 5730 5731 5732 5731 5730 5730 5730 5731 5731 5732 5733 5735 5735 5736 5737 5738 5739 5740 5740 5741 5743 5745 5747 5749 5751 5752
5685 5687 5690 5692 5694 5695 5697 5698 5699 5701 5703 5705 5706 5707 5708 5709 5710 5711 5712 5713 5714 5715 5716 5717 5718 5719 5720 5720 5721 5722 5724 5725 5725 5726 5726 5726 5726 5726 5726 5726 5726 5726 5726 5727 5727 5727 5726 5726 5726 5727 5727 5727 5728 5728 5727 5727 5727 5727 5727 5726 5726 5727 5728 5727 5727 5728 5728 5728 5729 5729 5729 5731 5732 5733 5735 5736 5737 5737 5738 5738 5740 5742 5743 5744 5746 5748 5749
5682 5684 5687 5689 5692 5693 5694 5695 5697 5699 5701 5702 5703 5704 5705 5706 5707 5708 5709 5710 5711 5712 5713 5714 5715 5716 5717 5718 5719 5720 5721 5722 5723 5723 5724 5724 5724 5724 5724 5724 5724 5724 5724 5724 5724 5724 5724 5724 5724 5724 5725 5725 5725 5725 5725 5725 5724 5724 5723 5723 5724 5724 5724 5724 5724 5725 5725 5726 5726 5727 5727 5728 5730 5731 5732 5734 5734 5735 5736 5737 5738 5740 5741 5742 5744 5745 5745
5680 5681 5684 5686 5688 5690 5691 5692 5694 5696 5697 5699 5701 5702 5703 5703 5705 5706 5706 5707 5708 5709 5710 5711 5712 5713 5714 5715 5716 5717 5718 5719 5720 5721 5721 5722 5722 5722 5722 5722 5723 5722 5722 5722 5722 5722 5722 5722 5722 5722 5722 5722 5722 5722 5722 5722 5722 5721 5720 5720 5720 5720 5720 5720 5720 5720 5721 5723 5723 5724 5724 5726 5727 5728 5730 5731 5732 5733 5734 5735 5736 5737 5738 5740 5741 5741 5742
5677 5678 5681 5683 5685 5687 5687 5689 5691 5692 5694 5696 5698 5699 5700 5701 5702 5703 5703 5704 5705 5706 5707 5708 5709 5709 5710 5712 5713 5714 5715 5716 5716 5717 5718 5719 5719 5719 5720 5720 5720 5720 5720 5720 5720 5720 5720 5720 5720 5720 5720 5720 5719 5719 5719 5719 5719 5718 5718 5717 5716 5716 5716 5716 5716 5717 5718 5720 5720 5721 5722 5723 5725 5726 5727 5729 5730 5731 5732 5733 5733 5734 5735 5737 5738 5739 5740
5674 5675 5677 5680 5682 5683 5684 5686 5687 5689 5691 5692 5694 5696 5697 5698 5699 5699 5700 5701 5702 5703 5704 5705 5706 5706 5707 5709 5710 5711 5711 5712 5713 5714 5715 5716 5716 5716 5717 5717 5718 5718 5718 5718 5718 5718 5718 5718 5718 5717 5717 5717 5717 5717 5717 5716 5716 5716 5715 5715 5714 5713 5713 5713 5713 5714 5715 5717 5718 5718 5719 5720 5722 5723 5724 5727 5728 5728 5729 5730 5731 5732 5733 5734 5735 5737 5738
5670 5671 5674 5676 5678 5679 5680 5683 5684 5686 5687 5689 5691 5692 5693 5694 5695 5696 5697 5698 5699 5700 5701 5702 5703 5704 5705 5706 5707 5707 5708 5709 5710 5710 5711 5712 5713 5713 5714 5714 5714 5715 5715 5715 5715 5715 5715 5716 5715 5715 5715 5714 5714 5714 5714 5714 5714 5713 5713 5713 5712 5711 5711 5710 5711 5711 5713 5714 5715 5716 5717 5718 5719 5720 5721 5723 5724 5725 5725 5727 5728 5729 5730 5732 5733 5734 5735
5666 5667 5669 5672 5673 5675 5677 5679 5681 5683 5685 5686 5687 5689 5690 5691 5692 5693 5694 5696 5697 5697 5699 5700 5700 5701 5702 5703 5704 5704 5705 5705 5706 5707 5708 5709 5709 5710 5710 5710 5711 5712 5712 5712 5712 5712 5713 5713 5713 5713 5712 5712 5712 5712 5712 5711 5711 5711 5711 5711 5710 5710 5709 5709 5709 5710 5711 5712 5712 5714 5715 5715 5716 5717 5718 5719 5721 5721 5722 5724 5725 5726 5728 5729 5730 5731 5731
5664 5665 5666 5668 5670 5672 5674 5677 5679 5680 5682 5683 5685 5686 5687 5688 5689 5690 5691 5692 5693 5695 5696 5696 5697 5698 5699 5700 5700 5701 5701 5702 5702 5703 5704 5705 5706 5706 5707 5707 5708 5709 5709 5709 5709 5709 5710 5710 5710 5710 5710 5710 5710 5709 5709 5709 5709 5709 5709 5709 5709 5709 5708 5708 5708 5709 5710 5710 5710 5712 5713 5714 5715 5716 5716 5717 5718 5719 5720 5721 5722 5723 5725 5726 5727 5728 5728
5662 5663 5664 5666 5668 5670 5672 5674 5676 5678 5679 5680 5682 5683 5684 5685 5686 5687 5688 5689 5690 5691 5692 5693 5694 5694 5695 5696 5697 5697 5698 5698 5699 5699 5700 5701 5702 5703 5703 5704 5705 5706 5706 5706 5706 5707 5707 5707 5707 5708 5708 5708 5707 5707 5707 5707 5707 5707 5707 5706 5707 5707 5707 5707 5707 5707 5708 5708 5709 5710 5711 5712 5713 5714 5714 5715 5715 5716 5717 5719 5720 5720 5721 5722 5723 5724 5725
5659 5661 5662 5664 5666 5668 5669 5671 5673 5675 5676 5677 5678 5679 5681 5682 5683 5684 5685 5686 5687 5688 5689 5689 5690 5691 5691 5692 5693 5694 5694 5694 5695 5695 5696 5697 5698 5699 5699 5700 5701 5702 5702 5703 5703 5703 5703 5703 5704 5704 5705 5705 5705 5705 5705 5705 5705 5705 5705 5704 5704 5705 5705 5706 5705 5705 5705 5706 5707 5708 5709 5709 5710 5710 5711 5712 5712 5713 5715 5716 5716 5717 5718 5719 5720 5720 5721
5657 5658 5660 5662 5664 5665 5666 5668 5670 5671 5673 5674 5675 5676 5678 5679 5680 5681 5682 5683 5684 5685 5685 5686 5687 5687 5688 5689 5690 5690 5690 5690 5691 5692 5692 5692 5693 5694 5695 5696 5696 5697 5699 5699 5700 5700 5700 5700 5701 5701 5701 5702 5702 5702 5702 5702 5702 5702 5702 5702 5702 5702 5703 5704 5704 5703 5703 5704 5705 5706 5706 5707 5707 5707 5708 5708 5709 5710 5711 5712 5712 5713 5714 5715 5716 5717 5718
5654 5655 5657 5659 5661 5662 5663 5665 5667 5668 5670 5671 5672 5673 5675 5676 5677 5678 5679 5679 5680 5681 5682 5682 5682 5683 5684 5685 5685 5686 5686 5686 5687 5688 5688 5688 5689 5690 5691 5692 5693 5693 5694 5695 5696 5696 5697 5697 5698 5698 5698 5699 5699 5699 5699 5699 5699 5699 5700 5700 5700 5700 5700 5701 5701 5701 5701 5702 5702 5703 5704 5703 5703 5704 5704 5705 5705 5706 5707 5708 5709 5710 5711 5711 5712 5713 5714
5651 5652 5654 5655 5657 5659 5660 5662 5664 5665 5667 5667 5668 5670 5671 5672 5673 5674 5675 5675 5676 5677 5678 5678 5678 5679 5679 5680 5680 5681 5681 5682 5682 5683 5684 5684 5685 5685 5686 5687 5688 5689 5690 5691 5691 5692 5693 5694 5694 5694 5695 5695 5696 5696 5696 5696 5696 5696 5697 5697 5698 5698 5698 5698 5699 5699 5699 5699 5700 5700 5700 5700 5700 5701 5701 5702 5702 5702 5703 5704 5705 5706 5707 5708 5709 5711 5712
5648 5649 5651 5652 5654 5656 5657 5659 5660 5662 5663 5664 5665 5666 5668 5669 5670 5670 5671 5672 5673 5673 5674 5674 5675 5675 5675 5675 5676 5677 5677 5677 5678 5678 5679 5680 5681 5681 5682 5683 5684 5685 5685 5686 5687 5687 5689 5689 5690 5690 5691 5691 5692 5692 5693 5693 5692 5693 5693 5694 5694 5695 5695 5695 5696 5696 5697 5697 5697 5697 5697 5698 5698 5698 5699 5699 5699 5700 5701 5701 5703 5704 5705 5706 5707 5708 5709
5645 5647 5649 5650 5651 5653 5654 5656 5658 5659 5660 5661 5662 5663 5664 5665 5666 5667 5668 5669 5669 5670 5670 5671 5671 5671 5671 5672 5672 5673 5673 5673 5674 5674 5675 5676 5676 5677 5678 5679 5679 5680 5681 5681 5682 5682 5684 5685 5685 5686 5687 5687 5688 5688 5689 5689 5690 5690 5690 5691 5691 5691 5692 5692 5692 5693 5694 5694 5694 5695 5695 5695 5695 5696 5696 5696 5697 5697 5698 5699 5701 5702 5703 5704 5705 5705 5705
5643 5645 5646 5648 5649 5650 5652 5654 5655 5656 5657 5659 5660 5661 5662 5663 5663 5664 5665 5666 5666 5667 5668 5668 5668 5668 5669 5669 5669 5669 5669 5670 5670 5670 5671 5671 5672 5672 5673 5674 5674 5675 5675 5676 5677 5677 5678 5679 5680 5681 5682 5683 5684 5684 5685 5685 5686 5687 5687 5687 5688 5688 5688 5688 5688 5689 5690 5690 5691 5691 5691 5691 5692 5692 5693 5694 5695 5695 5695 5696 5697 5699 5699 5700 5700 5701 5701
5641 5643 5644 5645 5647 5649 5651 5652 5654 5654 5655 5657 5658 5659 5660 5661 5661 5662 5663 5664 5664 5664 5665 5665 5666 5666 5666 5666 5666 5667 5667 5667 5667 5667 5667 5668 5668 5668 5669 5669 5669 5670 5670 5671 5672 5673 5673 5674 5674 5675 5676 5678 5679 5679 5680 5681 5682 5683 5683 5684 5684 5685 5685 5685 5685 5685 5686 5687 5687 5687 5687 5687 5688 5689 5689 5691 5692 5693 5693 5694 5695 5695 5696 5696 5696 5696 5696
5640 5642 5643 5645 5646 5648 5650 5651 5652 5653 5654 5655 5656 5657 5658 5659 5660 5661 5661 5662 5662 5662 5663 5663 5663 5663 5664 5664 5664 5664 5664 5664 5664 5664 5664 5664 5664 5664 5664 5665 5665 5665 5666 5666 5667 5668 5669 5669 5668 5668 5670 5672 5673 5674 5675 5676 5677 5678 5679 5679 5680 5681 5681 5682 5682 5682 5683 5683 5684 5684 5684 5684 5685 5685 5686 5687 5689 5690 5690 5691 5692 5692 5693 5693 5692 5693 5693
5640 5641 5643 5644 5646 5647 5649 5650 5651 5652 5653 5654 5655 5656 5657 5658 5658 5659 5659 5660 5660 5660 5660 5660 5660 5660 5661 5661 5661 5661 5661 5661 5661 5661 5660 5660 5660 5660 5660 5660 5661 5661 5661 5662 5662 5663 5664 5664 5663 5664 5665 5666 5668 5669 5670 5671 5672 5673 5674 5674 5675 5676 5677 5677 5678 5678 5679 5680 5680 5681 5681 5681 5681 5682 5683 5684 5685 5686 5687 5688 5689 5690 5690 5689 5688 5689 5689
5640 5641 5642 5644 5645 5647 5648 5649 5650 5651 5652 5653 5654 5655 5656 5656 5657 5657 5657 5658 5658 5658 5658 5658 5657 5657 5657 5657 5657 5657 5657 5657 5657 5657 5656 5656 5656 5656 5656 5656 5657 5657 5657 5658 5658 5659 5659 5658 5659 5660 5661 5661 5662 5663 5665 5666 5667 5668 5668 5669 5670 5671 5672 5673 5673 5674 5674 5675 5675 5676 5677 5677 5677 5678 5679 5680 5681 5682 5683 5684 5685 5686 5686 5685 5685 5684 5684
5640 5641 5643 5644 5645 5646 5648 5649 5650 5650 5651 5652 5653 5654 5654 5655 5655 5655 5655 5655 5655 5655 5655 5654 5654 5654 5653 5653 5653 5652 5652 5652 5652 5652 5652 5651 5651 5652 5652 5652 5652 5653 5653 5653 5654 5654 5654 5654 5655 5656 5656 5657 5657 5658 5660 5661 5662 5663 5663 5664 5665 5665 5666 5667 5668 5669 5670 5671 5671 5672 5672 5673 5673 5674 5675 5676 5677 5678 5679 5679 5680 5681 5681 5681 5681 5680 5680
5640 5641 5642 5644 5645 5646 5647 5648 5649 5649 5650 5651 5652 5652 5653 5653 5653 5653 5653 5653 5653 5652 5651 5651 5650 5649 5649 5648 5648 5648 5647 5647 5647 5646 5646 5646 5646 5647 5647 5647 5647 5647 5648 5648 5649 5649 5649 5650 5650 5651 5651 5652 5653 5654 5654 5656 5657 5658 5659 5659 5660 5660 5661 5663 5664 5664 5665 5666 5667 5667 5668 5669 5669 5670 5671 5671 5672 5673 5674 5675 5675 5676 5676 5676 5676 5676 5676
5639 5641 5642 5643 5644 5645 5646 5647 5648 5649 5649 5650 5651 5651 5651 5651 5651 5651 5651 5650 5649 5648 5647 5646 5646 5645 5644 5643 5642 5642 5641 5641 5640 5640 5640 5640 5640 5640 5641 5641 5641 5642 5642 5642 5643 5643 5644 5644 5645 5645 5646 5647 5648 5648 5649 5650 5651 5652 5654 5654 5655 5656 5657 5658 5660 5660 5661 5661 5662 5662 5663 5664 5664 5665 5666 5667 5668 5668 5669 5670 5670 5671 5672 5672 5672 5672 5672
5639 5640 5641 5642 5643 5644 5645 5646 5647 5648 5648 5649 5649 5649 5649 5649 5649 5649 5648 5647 5645 5644 5643 5642 5641 5640 5639 5637 5636 5635 5634 5634 5634 5633 5633 5633 5633 5633 5633 5633 5634 5635 5635 5635 5636 5637 5638 5638 5639 5639 5640 5642 5643 5643 5644 5645 5646 5647 5648 5649 5651 5652 5653 5654 5655 5656 5657 5658 5658 5659 5659 5659 5660 5660 5661 5662 5663 5663 5664 5664 5665 5666 5666 5666 5666 5667 5667
5639 5640 5641 5642 5643 5644 5645 5645 5646 5647 5647 5647 5648 5648 5648 5647 5647 5646 5645 5644 5643 5642 5640 5638 5636 5635 5633 5632 5630 5629 5628 5628 5627 5626 5626 5625 5625 5626 5626 5626 5627 5628 5628 5628 5629 5631 5631 5632 5633 5633 5634 5636 5637 5638 5639 5640 5641 5642 5643 5644 5645 5647 5648 5649 5650 5651 5652 5653 5654 5654 5655 5655 5656 5657 5657 5657 5658 5658 5658 5659 5659 5659 5659 5660 5660 5661 5661
5640 5640 5641 5642 5643 5644 5644 5645 5646 5646 5646 5646 5646 5646 5646 5646 5645 5644 5644 5642 5641 5639 5637 5635 5633 5631 5630 5628 5626 5625 5624 5624 5622 5621 5620 5620 5619 5619 5619 5619 5620 5621 5621 5622 5623 5624 5625 5626 5627 5628 5629 5630 5631 5633 5634 5635 5635 5636 5638 5639 5640 5641 5642 5643 5644 5645 5646 5647 5648 5649 5649 5650 5651 5652 5653 5653 5653 5654 5654 5654 5654 5653 5653 5654 5655 5655 5655
5640 5641 5642 5642 5643 5644 5645 5645 5645 5645 5645 5645 5645 5645 5644 5644 5643 5642 5641 5640 5638 5636 5634 5632 5630 5628 5626 5625 5623 5622 5621 5620 5619 5618 5617 5616 5615 5615 5614 5614 5615 5615 5616 5616 5617 5618 5619 5620 5621 5622 5623 5624 5625 5627 5629 5630 5630 5631 5632 5633 5634 5634 5635 5636 5638 5639 5641 5642 5643 5643 5643 5644 5645 5645 5646 5647 5648 5649 5649 5649 5647 5647 5648 5649 5649 5649 5649
5640 5641 5642 5643 5643 5644 5644 5644 5644 5644 5644 5644 5644 5643 5643 5642 5641 5640 5639 5637 5636 5634 5632 5631 5629 5627 5625 5624 5622 5621 5619 5618 5617 5616 5615 5614 5613 5612 5611 5611 5611 5611 5611 5611 5612 5613 5614 5615 5616 5617 5617 5618 5619 5621 5623 5624 5624 5625 5626 5627 5627 5628 5629 5630 5632 5633 5635 5636 5636 5637 5638 5639 5639 5639 5640 5641 5642 5643 5643 5642 5641 5641 5643 5644 5644 5643 5643
5641 5641 5642 5643 5643 5643 5643 5643 5643 5643 5643 5643 5643 5642 5642 5641 5640 5639 5638 5636 5635 5634 5632 5630 5629 5627 5625 5623 5622 5620 5619 5617 5616 5614 5613 5612 5611 5610 5609 5608 5608 5607 5607 5608 5608 5608 5609 5610 5610 5611 5612 5612 5613 5615 5617 5618 5618 5619 5620 5620 5620 5621 5622 5623 5626 5627 5628 5629 5629 5630 5631 5632 5633 5633 5633 5634 5635 5636 5636 5634 5634 5635 5636 5637 5637 5637 5637
5641 5641 5642 5642 5642 5642 5642 5642 5643 5643 5643 5642 5642 5641 5641 5640 5639 5638 5637 5636 5634 5633 5631 5630 5628 5626 5625 5623 5621 5620 5618 5616 5615 5614 5612 5611 5610 5609 5608 5607 5606 5605 5605 5605 5604 5604 5605 5605 5605 5606 5606 5606 5607 5609 5610 5612 5613 5613 5614 5614 5614 5614 5615 5617 5619 5620 5621 5621 5622 5622 5623 5624 5626 5627 5627 5627 5628 5629 5629 5628 5628 5629 5630 5631 5631 5631 5631
5640 5641 5641 5641 5641 5642 5642 5643 5643 5643 5642 5642 5641 5641 5640 5639 5639 5638 5637 5635 5634 5632 5631 5629 5627 5626 5624 5623 5621 5619 5618 5616 5614 5613 5612 5610 5609 5608 5607 5606 5605 5604 5603 5602 5602 5601 5601 5601 5601 5601 5601 5601 5601 5602 5604 5605 5606 5607 5608 5608 5609 5609 5609 5610 5612 5613 5614 5614 5614 5614 5615 5617 5619 5620 5621 5621 5622 5622 5622 5622 5622 5623 5625 5625 5625 5625 5626
5639 5640 5640 5641 5641 5642 5643 5643 5643 5642 5642 5641 5641 5640 5640 5639 5638 5637 5636 5635 5634 5632 5631 5629 5627 5626 5624 5623 5621 5620 5618 5617 5615 5613 5612 5610 5609 5607 5606 5605 5603 5602 5601 5601 5600 5599 5598 5598 5597 5597 5597 5597 5597 5597 5598 5599 5600 5601 5601 5602 5603 5603 5604 5605 5606 5607 5607 5607 5607 5608 5609 5610 5612 5614 5615 5615 5615 5616 5616 5616 5616 5617 5619 5619 5619 5619 5620
5639 5639 5640 5640 5641 5642 5642 5642 5642 5642 5641 5640 5640 5639 5639 5638 5637 5637 5636 5635 5634 5633 5631 5629 5628 5626 5625 5623 5622 5620 5619 5617 5615 5614 5612 5610 5609 5607 5605 5604 5602 5601 5600 5599 5598 5597 5596 5596 5595 5594 5594 5593 5593 5593 5593 5593 5594 5595 5595 5595 5596 5597 5597 5599 5600 5600 5600 5600 5601 5601 5602 5603 5605 5607 5608 5609 5609 5609 5609 5609 5610 5611 5612 5613 5612 5612 5613
5638 5639 5640 5640 5640 5641 5641 5641 5641 5641 5640 5640 5639 5639 5638 5638 5637 5637 5636 5635 5634 5633 5631 5630 5629 5627 5625 5624 5622 5621 5619 5617 5616 5614 5612 5610 5609 5607 5605 5603 5602 5600 5598 5597 5596 5595 5594 5593 5592 5592 5591 5591 5590 5590 5589 5589 5589 5589 5590 5590 5590 5590 5591 5592 5593 5593 5593 5593 5594 5594 5596 5597 5599 5600 5602 5603 5603 5602 5602 5602 5603 5605 5606 5606 5606 5606 5607
5638 5639 5639 5640 5640 5640 5640 5640 5640 5640 5640 5639 5639 5638 5638 5638 5637 5636 5636 5635 5634 5633 5632 5631 5629 5628 5626 5624 5623 5621 5619 5617 5615 5613 5611 5610 5608 5607 5605 5603 5601 5600 5598 5596 5595 5594 5592 5591 5590 5590 5589 5588 5588 5587 5586 5586 5585 5585 5585 5585 5584 5585 5585 5586 5586 5586 5586 5587 5587 5588 5589 5591 5592 5593 5594 5595 5596 5596 5596 5596 5597 5598 5600 5601 5601 5601 5600
5638 5638 5638 5638 5639 5639 5639 5639 5639 5639 5639 5639 5639 5638 5638 5637 5637 5636 5635 5635 5634 5633 5632 5631 5629 5628 5627 5625 5623 5621 5619 5618 5616 5614 5612 5609 5607 5606 5605 5603 5601 5599 5598 5596 5594 5593 5592 5591 5589 5588 5587 5586 5585 5584 5584 5583 5582 5582 5581 5581 5580 5580 5581 5581 5581 5580 5580 5580 5581 5582 5583 5584 5585 5586 5587 5588 5589 5589 5589 5590 5591 5592 5593 5595 5596 5595 5594
5637 5637 5637 5637 5637 5638 5638 5638 5638 5638 5638 5638 5638 5638 5637 5637 5636 5635 5635 5634 5633 5632 5632 5631 5629 5628 5626 5625 5623 5621 5620 5618 5616 5614 5612 5610 5607 5605 5604 5602 5600 5598 5597 5595 5594 5592 5591 5590 5588 5587 5585 5584 5583 5582 5581 5580 5579 5578 5578 5577 5577 5576 5577 5577 5577 5576 5576 5576 5576 5577 5577 5578 5579 5580 5580 5581 5582 5582 5583 5584 5585 5585 5587 5588 5589 5589 5588
5636 5636 5636 5636 5637 5637 5637 5637 5638 5638 5638 5638 5637 5637 5637 5636 5635 5635 5634 5633 5633 5632 5631 5630 5629 5627 5626 5624 5623 5621 5619 5618 5616 5614 5612 5610 5607 5605 5603 5602 5600 5598 5596 5594 5593 5591 5589 5588 5587 5585 5584 5582 5581 5580 5578 5577 5576 5575 5574 5573 5573 5573 5573 5573 5573 5572 5572 5571 5572 5572 5572 5573 5573 5574 5574 5575 5576 5576 5577 5578 5579 5580 5581 5582 5582 5583 5583
5635 5635 5636 5636 5636 5636 5637 5637 5637 5637 5637 5637 5637 5636 5636 5635 5635 5634 5634 5633 5632 5632 5631 5630 5628 5627 5626 5624 5623 5621 5619 5617 5615 5614 5612 5610 5608 5605 5603 5601 5599 5597 5595 5593 5591 5589 5588 5587 5585 5584 5582 5581 5579 5578 5576 5575 5573 5572 5571 5570 5569 5568 5568 5569 5569 5569 5568 5567 5567 5567 5567 5568 5568 5569 5569 5570 5570 5571 5571 5572 5572 5573 5574 5575 5576 5577 5577
5635 5635 5635 5636 5636 5636 5636 5636 5637 5637 5636 5636 5636 5636 5635 5635 5634 5634 5633 5633 5632 5631 5630 5629 5628 5627 5625 5624 5622 5620 5619 5617 5615 5613 5611 5609 5607 5605 5603 5601 5599 5597 5594 5592 5590 5588 5587 5585 5584 5582 5580 5578 5577 5576 5574 5572 5571 5569 5568 5567 5566 5565 5564 5564 5564 5565 5564 5563 5563 5563 5563 5563 5564 5564 5565 5565 5565 5566 5566 5567 5567 5568 5569 5570 5570 5571 5571
5634 5635 5635 5635 5635 5636 5636 5636 5636 5636 5636 5636 5635 5635 5635 5634 5634 5633 5632 5632 5631 5631 5630 5629 5628 5627 5625 5624 5622 5620 5618 5617 5615 5613 5611 5609 5606 5604 5602 5600 5598 5595 5593 5592 5590 5588 5586 5584 5582 5580 5578 5576 5574 5573 5572 5570 5568 5567 5566 5564 5563 5561 5560 5560 5559 5560 5560 5560 5559 5559 5559 5559 5559 5560 5560 5560 5561 5561 5561 5562 5562 5563 5564 5564 5565 5566 5567
5634 5634 5634 5635 5635 5635 5635 5636 5636 5636 5635 5635 5635 5634 5634 5634 5633 5632 5632 5631 5630 5630 5629 5628 5627 5626 5624 5623 5621 5619 5618 5616 5614 5612 5610 5608 5606 5603 5601 5599 5597 5595 5593 5590 5588 5586 5584 5582 5580 5578 5576 5574 5572 5571 5569 5568 5566 5565 5564 5562 5560 5559 5557 5556 5555 5555 5555 5556 5556 5556 5555 5555 5556 5556 5556 5556 5556 5557 5557 5557 5558 5558 5559 5560 5561 5562 5562
5633 5633 5634 5634 5634 5635 5635 5635 5635 5635 5635 5634 5634 5634 5633 5633 5632 5632 5631 5630 5630 5629 5628 5627 5626 5624 5623 5621 5620 5618 5616 5614 5613 5611 5609 5607 5605 5603 5601 5599 5596 5594 5591 5589 5587 5584 5582 5580 5578 5576 5574 5572 5570 5568 5567 5565 5564 5562 5561 5560 5558 5556 5555 5554 5552 5551 5551 5552 5553 5553 5552 5552 5552 5552 5552 5552 5552 5552 5553 5553 5553 5554 5555 5556 5556 5557 5558
5632 5633 5633 5633 5634 5634 5634 5634 5634 5634 5634 5634 5634 5633 5633 5632 5631 5631 5630 5630 5629 5628 5627 5626 5624 5623 5622 5620 5618 5617 5615 5613 5611 5609 5607 5605 5603 5601 5599 5597 5594 5591 5589 5587 5584 5582 5580 5578 5576 5574 5572 5570 5568 5566 5564 5562 5561 5559 5558 5557 5555 5554 5552 5551 5550 5549 5549 5549 5549 5549 5549 5549 5549 5549 5549 5548 5548 5548 5549 5549 5549 5550 5551 5551 5552 5553 5553
5632 5632 5632 5633 5633 5634 5634 5634 5634 5634 5633 5633 5633 5632 5632 5631 5631 5630 5629 5628 5628 5627 5625 5624 5623 5622 5620 5619 5617 5615 5613 5611 5609 5607 5605 5603 5601 5599 5596 5594 5592 5589 5587 5584 5582 5580 5578 5575 5573 5571 5569 5568 5566 5564 5562 5560 5558 5556 5555 5554 5553 5551 5550 5548 5548 5547 5546 5545 5545 5545 5545 5545 5545 5546 5545 5545 5545 5545 5545 5545 5545 5546 5547 5547 5548 5548 5549
5631 5631 5632 5632 5633 5633 5633 5633 5633 5633 5633 5633 5632 5632 5631 5630 5630 5629 5628 5627 5626 5625 5624 5622 5621 5620 5618 5617 5615 5613 5611 5610 5608 5605 5603 5601 5599 5597 5594 5592 5590 5587 5585 5582 5580 5578 5575 5573 5571 5569 5567 5565 5563 5561 5559 5557 5555 5553 5552 5551 5550 5549 5547 5546 5545 5544 5544 5543 5542 5542 5542 5542 5542 5542 5542 5541 5541 5541 5541 5541 5541 5542 5543 5543 5544 5545 5545
5630 5630 5631 5631 5632 5632 5632 5632 5632 5632 5632 5631 5631 5631 5630 5629 5628 5627 5626 5625 5624 5623 5622 5621 5619 5618 5616 5615 5613 5611 5609 5608 5606 5604 5601 5599 5597 5595 5593 5590 5588 5585 5583 5580 5577 5575 5573 5570 5568 5566 5564 5562 5560 5558 5556 5554 5552 5550 5548 5547 5546 5545 5544 5543 5542 5541 5540 5540 5539 5539 5538 5538 5538 5537 5537 5537 5538 5538 5538 5538 5538 5538 5539 5540 5541 5541 5542
5629 5630 5630 5630 5631 5631 5631 5631 5631 5631 5630 5630 5630 5629 5628 5627 5626 5625 5624 5623 5622 5621 5620 5619 5617 5615 5614 5612 5611 5609 5607 5606 5604 5602 5599 5597 5594 5592 5590 5587 5585 5582 5580 5577 5575 5572 5570 5567 5565 5563 5561 5558 5556 5554 5552 5551 5549 5547 5546 5544 5542 5541 5540 5540 5539 5538 5537 5537 5536 5536 5536 5535 5534 5533 5533 5533 5534 5534 5534 5534 5535 5535 5536 5536 5537 5538 5538
5628 5629 5629 5629 5629 5630 5630 5630 5629 5629 5629 5628 5628 5627 5626 5625 5624 5623 5622 5621 5620 5619 5618 5616 5615 5613 5611 5610 5608 5607 5605 5603 5601 5599 5597 5594 5592 5590 5587 5585 5582 5580 5577 5575 5572 5569 5567 5565 5562 5560 5558 5556 5554 5552 5550 5547 5545 5544 5542 5541 5539 5538 5536 5536 5535 5535 5534 5534 5533 5533 5532 5532 5532 5531 5530 5529 5530 5530 5530 5531 5531 5532 5532 5533 5533 5534 5534
5627 5627 5627 5628 5628 5628 5628 5628 5628 5627 5627 5626 5626 5625 5624 5623 5622 5621 5620 5619 5618 5617 5615 5614 5613 5611 5609 5607 5606 5604 5602 5600 5598 5596 5594 5592 5590 5587 5585 5583 5580 5578 5575 5572 5569 5567 5564 5562 5559 5557 5555 5553 5551 5549 5547 5544 5542 5540 5538 5537 5536 5535 5533 5532 5531 5531 5530 5530 5530 5529 5529 5529 5528 5528 5527 5527 5527 5526 5526 5526 5527 5528 5528 5529 5529 5530 5530
5625 5625 5626 5626 5626 5626 5626 5626 5626 5625 5625 5624 5624 5623 5622 5621 5620 5618 5617 5616 5615 5614 5613 5612 5610 5608 5606 5605 5603 5601 5599 5597 5595 5594 5591 5589 5587 5584 5582 5580 5577 5575 5572 5570 5567 5564 5561 5559 5556 5554 5552 5550 5548 5546 5544 5542 5539 5537 5535 5533 5532 5531 5530 5528 5527 5527 5526 5526 5526 5526 5526 5525 5525 5524 5524 5524 5523 5523 5522 5522 5523 5524 5524 5524 5525 5526 5526